Previsão horária em Abdrashitovo

Hoje, 19 Janeiro, Terça-feira

Tempo Temperatura Precipitação Vento Pressão Humidade
00:00 -22°C° 0 mm 1 m/s 743 mmHg 92%
01:00 -22°C° 0 mm 0 m/s 743 mmHg 92%
02:00 -21°C° 0 mm 1 m/s 743 mmHg 90%
03:00 -21°C° 0 mm 1 m/s 742 mmHg 89%
04:00 -20°C° 0 mm 1 m/s 742 mmHg 88%
05:00 -20°C° 0 mm 1 m/s 742 mmHg 87%
06:00 -19°C° 0 mm 1 m/s 742 mmHg 86%
07:00 -18°C° 0 mm 1 m/s 741 mmHg 85%
08:00 -19°C° 0 mm 2 m/s 741 mmHg 84%
09:00 -17°C° 0 mm 2 m/s 741 mmHg 83%
10:00 -16°C° 0 mm 2 m/s 741 mmHg 82%
11:00 -15°C° 0.1 mm 2 m/s 741 mmHg 85%
12:00 -14°C° 0.1 mm 2 m/s 741 mmHg 88%
13:00 -12°C° 0.1 mm 2 m/s 740 mmHg 91%
14:00 -13°C° 0.4 mm 3 m/s 740 mmHg 92%
15:00 -13°C° 0.4 mm 3 m/s 740 mmHg 94%
16:00 -13°C° 0.4 mm 3 m/s 740 mmHg 95%
17:00 -14°C° 0.3 mm 3 m/s 740 mmHg 95%
18:00 -15°C° 0.3 mm 4 m/s 740 mmHg 94%
19:00 -16°C° 0.3 mm 4 m/s 739 mmHg 94%
20:00 -16°C° 0.2 mm 4 m/s 739 mmHg 94%
21:00 -16°C° 0.2 mm 4 m/s 739 mmHg 94%
22:00 -15°C° 0.2 mm 3 m/s 739 mmHg 94%
23:00 -15°C° 0.3 mm 3 m/s 739 mmHg 95%

Amanhã, 20 Janeiro, Quarta-feira

Tempo Temperatura Precipitação Vento Pressão Humidade
00:00 -14°C° 0.3 mm 2 m/s 739 mmHg 95%
01:00 -14°C° 0.3 mm 2 m/s 739 mmHg 95%
02:00 -14°C° 0.3 mm 2 m/s 738 mmHg 96%
03:00 -12°C° 0.3 mm 1 m/s 738 mmHg 96%
04:00 -13°C° 0.3 mm 1 m/s 738 mmHg 96%
05:00 -13°C° 0.2 mm 1 m/s 738 mmHg 96%
06:00 -13°C° 0.2 mm 1 m/s 738 mmHg 96%
07:00 -13°C° 0.2 mm 1 m/s 737 mmHg 96%
08:00 -14°C° 0.3 mm 2 m/s 737 mmHg 95%
09:00 -15°C° 0.3 mm 3 m/s 737 mmHg 95%
10:00 -16°C° 0.3 mm 4 m/s 737 mmHg 94%
11:00 -16°C° 0.2 mm 4 m/s 737 mmHg 94%
12:00 -16°C° 0.2 mm 4 m/s 737 mmHg 93%
13:00 -17°C° 0.2 mm 5 m/s 737 mmHg 93%
14:00 -18°C° 0.2 mm 5 m/s 737 mmHg 93%
15:00 -19°C° 0.2 mm 5 m/s 737 mmHg 93%
16:00 -20°C° 0.2 mm 5 m/s 737 mmHg 94%
17:00 -21°C° 0.2 mm 5 m/s 738 mmHg 94%
18:00 -22°C° 0.2 mm 5 m/s 738 mmHg 94%
19:00 -24°C° 0.2 mm 6 m/s 738 mmHg 95%
20:00 -24°C° 0.2 mm 6 m/s 738 mmHg 95%
21:00 -25°C° 0.2 mm 5 m/s 739 mmHg 95%
22:00 -25°C° 0.2 mm 5 m/s 739 mmHg 95%
23:00 -26°C° 0.1 mm 5 m/s 739 mmHg 95%

Depois de amanhã, 21 Janeiro, Quinta-feira

Tempo Temperatura Precipitação Vento Pressão Humidade
00:00 -26°C° 0.1 mm 5 m/s 739 mmHg 95%
01:00 -26°C° 0.1 mm 5 m/s 739 mmHg 94%
02:00 -26°C° 0.1 mm 5 m/s 740 mmHg 95%
03:00 -26°C° 0.1 mm 5 m/s 740 mmHg 95%
04:00 -27°C° 0.1 mm 5 m/s 740 mmHg 95%
05:00 -27°C° 0 mm 5 m/s 740 mmHg 94%
06:00 -27°C° 0 mm 5 m/s 740 mmHg 94%
07:00 -28°C° 0 mm 5 m/s 740 mmHg 93%
08:00 -27°C° 0.1 mm 5 m/s 740 mmHg 93%
09:00 -27°C° 0.1 mm 5 m/s 740 mmHg 93%
10:00 -27°C° 0.1 mm 5 m/s 741 mmHg 93%
11:00 -26°C° 0 mm 5 m/s 741 mmHg 93%
12:00 -25°C° 0 mm 5 m/s 741 mmHg 93%
13:00 -25°C° 0 mm 5 m/s 741 mmHg 92%
14:00 -25°C° 0 mm 5 m/s 741 mmHg 92%
15:00 -24°C° 0 mm 4 m/s 740 mmHg 93%
16:00 -24°C° 0 mm 4 m/s 740 mmHg 93%
17:00 -24°C° 0 mm 4 m/s 740 mmHg 93%
18:00 -25°C° 0 mm 4 m/s 741 mmHg 93%
19:00 -25°C° 0 mm 4 m/s 741 mmHg 93%
20:00 -25°C° 0 mm 4 m/s 741 mmHg 93%
21:00 -25°C° 0 mm 4 m/s 741 mmHg 93%
22:00 -24°C° 0 mm 4 m/s 741 mmHg 94%
23:00 -25°C° 0 mm 4 m/s 740 mmHg 94%

22 Janeiro, Sexta-feira

Tempo Temperatura Precipitação Vento Pressão Humidade
00:00 -25°C° 0 mm 4 m/s 740 mmHg 94%
01:00 -25°C° 0 mm 4 m/s 740 mmHg 94%
02:00 -24°C° 0 mm 4 m/s 740 mmHg 94%
03:00 -24°C° 0 mm 4 m/s 739 mmHg 94%
04:00 -23°C° 0 mm 4 m/s 739 mmHg 93%
05:00 -22°C° 0.2 mm 4 m/s 738 mmHg 94%
06:00 -22°C° 0.2 mm 4 m/s 738 mmHg 95%
07:00 -20°C° 0.2 mm 4 m/s 737 mmHg 95%
08:00 -20°C° 0.6 mm 5 m/s 737 mmHg 95%
09:00 -20°C° 0.6 mm 5 m/s 736 mmHg 94%
10:00 -20°C° 0.6 mm 6 m/s 736 mmHg 94%
11:00 -19°C° 0.2 mm 5 m/s 736 mmHg 92%
12:00 -19°C° 0.2 mm 5 m/s 736 mmHg 91%
13:00 -19°C° 0.2 mm 5 m/s 736 mmHg 89%
14:00 -18°C° 0 mm 4 m/s 736 mmHg 90%
15:00 -17°C° 0 mm 3 m/s 736 mmHg 92%
16:00 -16°C° 0 mm 2 m/s 737 mmHg 93%
17:00 -16°C° 0 mm 2 m/s 737 mmHg 94%
18:00 -17°C° 0 mm 2 m/s 738 mmHg 95%
19:00 -16°C° 0 mm 1 m/s 739 mmHg 96%
20:00 -16°C° 0 mm 1 m/s 739 mmHg 96%
21:00 -16°C° 0 mm 1 m/s 740 mmHg 96%
22:00 -16°C° 0 mm 1 m/s 740 mmHg 97%
23:00 -17°C° 0 mm 1 m/s 741 mmHg 97%

23 Janeiro, Sábado

Tempo Temperatura Precipitação Vento Pressão Humidade
00:00 -18°C° 0 mm 1 m/s 741 mmHg 98%
01:00 -18°C° 0 mm 0 m/s 742 mmHg 99%
02:00 -18°C° 0 mm 0 m/s 742 mmHg 98%
03:00 -18°C° 0 mm 1 m/s 743 mmHg 98%
04:00 -17°C° 0 mm 1 m/s 743 mmHg 97%
05:00 -18°C° 0 mm 1 m/s 744 mmHg 97%
06:00 -18°C° 0 mm 1 m/s 744 mmHg 97%
07:00 -18°C° 0 mm 1 m/s 745 mmHg 97%
08:00 -18°C° 0 mm 1 m/s 745 mmHg 96%
09:00 -17°C° 0 mm 1 m/s 745 mmHg 95%
10:00 -17°C° 0 mm 1 m/s 745 mmHg 95%
11:00 -18°C° 0.1 mm 2 m/s 745 mmHg 94%
12:00 -17°C° 0.1 mm 2 m/s 745 mmHg 94%
13:00 -16°C° 0.1 mm 2 m/s 745 mmHg 94%
14:00 -16°C° 0.5 mm 2 m/s 744 mmHg 94%
15:00 -16°C° 0.5 mm 2 m/s 744 mmHg 95%
16:00 -16°C° 0.5 mm 2 m/s 744 mmHg 96%
17:00 -16°C° 0.7 mm 2 m/s 744 mmHg 96%
18:00 -16°C° 0.7 mm 2 m/s 744 mmHg 96%
19:00 -16°C° 0.7 mm 2 m/s 743 mmHg 96%
20:00 -16°C° 0.7 mm 2 m/s 743 mmHg 96%
21:00 -16°C° 0.7 mm 2 m/s 743 mmHg 96%
22:00 -14°C° 0.7 mm 1 m/s 743 mmHg 96%
23:00 -15°C° 0.5 mm 2 m/s 743 mmHg 96%

24 Janeiro, Domingo

Tempo Temperatura Precipitação Vento Pressão Humidade
00:00 -15°C° 0.5 mm 2 m/s 743 mmHg 96%
01:00 -15°C° 0.5 mm 2 m/s 743 mmHg 96%
02:00 -15°C° 0.5 mm 2 m/s 744 mmHg 96%
03:00 -13°C° 0.5 mm 1 m/s 744 mmHg 96%
04:00 -12°C° 0.5 mm 1 m/s 744 mmHg 96%
05:00 -12°C° 0.5 mm 1 m/s 744 mmHg 96%
06:00 -14°C° 0.5 mm 2 m/s 745 mmHg 96%
07:00 -15°C° 0.5 mm 2 m/s 745 mmHg 96%
08:00 -12°C° 0.3 mm 1 m/s 745 mmHg 96%
09:00 -12°C° 0.3 mm 1 m/s 746 mmHg 96%
10:00 -11°C° 0.3 mm 1 m/s 746 mmHg 95%
11:00 -10°C° 0.3 mm 1 m/s 746 mmHg 95%
12:00 -9°C° 0.3 mm 1 m/s 746 mmHg 95%
13:00 -7°C° 0.3 mm 1 m/s 747 mmHg 95%
14:00 -6°C° 0.2 mm 1 m/s 747 mmHg 95%
15:00 -5°C° 0.2 mm 2 m/s 747 mmHg 95%
16:00 -4°C° 0.2 mm 2 m/s 747 mmHg 95%
17:00 -4°C° 0.2 mm 2 m/s 747 mmHg 95%
18:00 -4°C° 0.2 mm 3 m/s 747 mmHg 95%
19:00 -4°C° 0.2 mm 3 m/s 747 mmHg 95%
20:00 -4°C° 0.1 mm 4 m/s 747 mmHg 94%
21:00 -5°C° 0.1 mm 4 m/s 747 mmHg 92%
22:00 -6°C° 0.1 mm 5 m/s 747 mmHg 91%
23:00 -6°C° 0 mm 5 m/s 747 mmHg 91%
Mostrar mais